Location: Ferchesar
(52.6477°N, 12.4298°E)
Time: 10:03:15
(UTC+01:00)

BUGSAT 1 - Pass Details

Date: 27 October 2021
Orbit: 558 x 601 km, 98.1° (Epoch: 28 November)

Event Time Altitude Azimuth Distance (km) Brightness Sun altitude
Rises 05:45:59 0° 20° (NNE) 2,760 ? -20.5°
Reaches altitude 10° 05:48:14 10° 28° (NNE) 1,861 ? -20.2°
Maximum altitude 05:52:01 40° 99° (E) 848 ? -19.6°
Drops below altitude 10° 05:55:49 10° 169° (S) 1,861 ? -19.0°
Sets 05:58:04 0° 177° (S) 2,759 ? -18.7°
